Data supplied by UK-AIR on 8/11/2015
All Data GMT hour ending 
Status: R =Ratified P=Provisional,P*=As supplied
,,Glazebury,,,,,,,,,,,,,,,,,,,,,,,
Date,time,"Nitric oxide",status,unit,"Nitrogen dioxide",status,unit,"Nitrogen oxides as nitrogen dioxide",status,unit,"Ozone",status,unit
 
01-01-2014,01:00,0.63155,R,ugm-3,6.93218,R,ugm-3,7.90054,R,ugm-3,48.42899,R,ugm-3
01-01-2014,02:00,1.10552,R,ugm-3,3.65415,R,ugm-3,5.34926,R,ugm-3,53.88390,R,ugm-3
01-01-2014,03:00,0.98724,R,ugm-3,2.99258,R,ugm-3,4.50633,R,ugm-3,56.67788,R,ugm-3
01-01-2014,04:00,0.78954,R,ugm-3,2.74013,R,ugm-3,3.95075,R,ugm-3,59.52175,R,ugm-3
01-01-2014,05:00,0.94764,R,ugm-3,1.32441,R,ugm-3,2.77743,R,ugm-3,63.11401,R,ugm-3
01-01-2014,06:00,0.94764,R,ugm-3,1.44776,R,ugm-3,2.90078,R,ugm-3,61.91659,R,ugm-3
01-01-2014,07:00,0.71034,R,ugm-3,1.50323,R,ugm-3,2.59239,R,ugm-3,63.71272,R,ugm-3
01-01-2014,08:00,0.86843,R,ugm-3,2.92756,R,ugm-3,4.25914,R,ugm-3,60.22025,R,ugm-3
01-01-2014,09:00,1.02653,R,ugm-3,6.44991,R,ugm-3,8.02389,R,ugm-3,56.67788,R,ugm-3
01-01-2014,10:00,1.18431,R,ugm-3,3.55438,R,ugm-3,5.37030,R,ugm-3,58.92304,R,ugm-3
01-01-2014,11:00,0.90803,R,ugm-3,4.53358,R,ugm-3,5.92588,R,ugm-3,60.17036,R,ugm-3
01-01-2014,12:00,1.22391,R,ugm-3,3.74037,R,ugm-3,5.61701,R,ugm-3,66.70627,R,ugm-3
01-01-2014,13:00,0.90803,R,ugm-3,4.03920,R,ugm-3,5.43150,R,ugm-3,70.34843,R,ugm-3
01-01-2014,14:00,0.82914,R,ugm-3,3.79010,R,ugm-3,5.06143,R,ugm-3,71.84520,R,ugm-3
01-01-2014,15:00,0.98661,R,ugm-3,6.01768,R,ugm-3,7.53047,R,ugm-3,66.80606,R,ugm-3
01-01-2014,16:00,1.02622,R,ugm-3,7.06764,R,ugm-3,8.64115,R,ugm-3,61.66713,R,ugm-3
01-01-2014,17:00,0.78954,R,ugm-3,7.67821,R,ugm-3,8.88882,R,ugm-3,57.07702,R,ugm-3
01-01-2014,18:00,0.86843,R,ugm-3,5.70547,R,ugm-3,7.03704,R,ugm-3,61.41767,R,ugm-3
01-01-2014,19:00,1.02653,R,ugm-3,3.42577,R,ugm-3,4.99975,R,ugm-3,69.10111,R,ugm-3
01-01-2014,20:00,0.90803,R,ugm-3,4.65742,R,ugm-3,6.04972,R,ugm-3,67.60434,R,ugm-3
01-01-2014,21:00,0.63176,R,ugm-3,4.09275,R,ugm-3,5.06143,R,ugm-3,65.20950,R,ugm-3
01-01-2014,22:00,0.82883,R,ugm-3,4.09897,R,ugm-3,5.36982,R,ugm-3,65.00993,R,ugm-3
01-01-2014,23:00,0.94764,R,ugm-3,9.59645,R,ugm-3,11.04947,R,ugm-3,60.07057,R,ugm-3
01-01-2014,24:00,1.02653,R,ugm-3,2.87066,R,ugm-3,4.44465,R,ugm-3,65.85810,R,ugm-3
02-01-2014,01:00,0.95252,R,ugm-3,3.83966,R,ugm-3,5.30018,R,ugm-3,63.92892,R,ugm-3
02-01-2014,02:00,1.11134,R,ugm-3,3.18176,R,ugm-3,4.88580,R,ugm-3,60.13709,R,ugm-3
02-01-2014,03:00,0.95263,R,ugm-3,2.82428,R,ugm-3,4.28496,R,ugm-3,59.42197,R,ugm-3
02-01-2014,04:00,0.63488,R,ugm-3,8.59143,R,ugm-3,9.56489,R,ugm-3,53.63444,R,ugm-3
02-01-2014,05:00,0.91271,R,ugm-3,5.18383,R,ugm-3,6.58330,R,ugm-3,56.57810,R,ugm-3
02-01-2014,06:00,1.03214,R,ugm-3,11.08772,R,ugm-3,12.67031,R,ugm-3,51.08992,R,ugm-3
02-01-2014,07:00,1.46870,R,ugm-3,32.03198,R,ugm-3,34.28395,R,ugm-3,27.74023,R,ugm-3
02-01-2014,08:00,3.53267,R,ugm-3,52.90310,R,ugm-3,58.31978,R,ugm-3,10.67700,R,ugm-3
02-01-2014,09:00,3.45377,R,ugm-3,48.49000,R,ugm-3,53.78572,R,ugm-3,17.26281,R,ugm-3
02-01-2014,10:00,3.85042,R,ugm-3,29.56056,R,ugm-3,35.46444,R,ugm-3,33.57765,R,ugm-3
02-01-2014,11:00,3.73130,R,ugm-3,18.68704,R,ugm-3,24.40828,R,ugm-3,46.10067,R,ugm-3
02-01-2014,12:00,3.21554,R,ugm-3,14.01289,R,ugm-3,18.94331,R,ugm-3,53.18541,R,ugm-3
02-01-2014,13:00,2.54075,R,ugm-3,11.56919,R,ugm-3,15.46495,R,ugm-3,57.72562,R,ugm-3
02-01-2014,14:00,1.19086,R,ugm-3,8.17307,R,ugm-3,9.99903,R,ugm-3,60.81896,R,ugm-3
02-01-2014,15:00,1.50830,R,ugm-3,9.55007,R,ugm-3,11.86276,R,ugm-3,59.97079,R,ugm-3
02-01-2014,16:00,1.82636,R,ugm-3,14.15537,R,ugm-3,16.95575,R,ugm-3,52.53680,R,ugm-3
02-01-2014,17:00,1.19086,R,ugm-3,13.94978,R,ugm-3,15.77573,R,ugm-3,48.79487,R,ugm-3
02-01-2014,18:00,1.23046,R,ugm-3,12.02628,R,ugm-3,13.91296,R,ugm-3,52.48691,R,ugm-3
02-01-2014,19:00,1.03183,R,ugm-3,12.76498,R,ugm-3,14.34710,R,ugm-3,50.29164,R,ugm-3
02-01-2014,20:00,1.15095,R,ugm-3,13.20342,R,ugm-3,14.96818,R,ugm-3,49.74282,R,ugm-3
02-01-2014,21:00,0.87311,R,ugm-3,11.02078,R,ugm-3,12.35953,R,ugm-3,52.13766,R,ugm-3
02-01-2014,22:00,0.99223,R,ugm-3,6.49103,R,ugm-3,8.01242,R,ugm-3,60.02068,R,ugm-3
02-01-2014,23:00,0.87311,R,ugm-3,5.98995,R,ugm-3,7.32870,R,ugm-3,61.31788,R,ugm-3
02-01-2014,24:00,0.87311,R,ugm-3,4.80994,R,ugm-3,6.14869,R,ugm-3,62.11616,R,ugm-3
03-01-2014,01:00,1.06561,R,ugm-3,3.77783,R,ugm-3,5.41174,R,ugm-3,64.12849,R,ugm-3
03-01-2014,02:00,0.85191,R,ugm-3,3.68985,R,ugm-3,4.99609,R,ugm-3,67.72075,R,ugm-3
03-01-2014,03:00,0.83881,R,ugm-3,3.39660,R,ugm-3,4.68276,R,ugm-3,72.04477,R,ugm-3
03-01-2014,04:00,0.95855,R,ugm-3,2.65168,R,ugm-3,4.12144,R,ugm-3,78.97983,R,ugm-3
03-01-2014,05:00,0.67853,R,ugm-3,1.58212,R,ugm-3,2.62252,R,ugm-3,75.23789,R,ugm-3
03-01-2014,06:00,1.07860,R,ugm-3,2.71718,R,ugm-3,4.37102,R,ugm-3,75.53725,R,ugm-3
03-01-2014,07:00,0.99909,R,ugm-3,4.52498,R,ugm-3,6.05689,R,ugm-3,79.77811,R,ugm-3
03-01-2014,08:00,1.19866,R,ugm-3,5.90484,R,ugm-3,7.74276,R,ugm-3,76.63488,R,ugm-3
03-01-2014,09:00,0.99878,R,ugm-3,8.02294,R,ugm-3,9.55437,R,ugm-3,72.89294,R,ugm-3
03-01-2014,10:00,1.35831,R,ugm-3,9.78100,R,ugm-3,11.86372,R,ugm-3,73.79101,R,ugm-3
03-01-2014,11:00,1.39822,R,ugm-3,8.28447,R,ugm-3,10.42838,R,ugm-3,77.43316,R,ugm-3
03-01-2014,12:00,1.31840,R,ugm-3,5.90867,R,ugm-3,7.93018,R,ugm-3,81.07531,R,ugm-3
03-01-2014,13:00,1.79767,R,ugm-3,6.36002,R,ugm-3,9.11641,R,ugm-3,79.87789,R,ugm-3
03-01-2014,14:00,1.15874,R,ugm-3,5.34161,R,ugm-3,7.11833,R,ugm-3,79.67832,R,ugm-3
03-01-2014,15:00,1.15874,R,ugm-3,6.71574,R,ugm-3,8.49246,R,ugm-3,80.87574,R,ugm-3
03-01-2014,16:00,1.11852,R,ugm-3,7.65096,R,ugm-3,9.36599,R,ugm-3,77.58284,R,ugm-3
03-01-2014,17:00,1.03869,R,ugm-3,10.77168,R,ugm-3,12.36431,R,ugm-3,71.04692,R,ugm-3
03-01-2014,18:00,1.15874,R,ugm-3,9.27610,R,ugm-3,11.05282,R,ugm-3,71.39617,R,ugm-3
03-01-2014,19:00,0.83881,R,ugm-3,7.33109,R,ugm-3,8.61725,R,ugm-3,68.10326,R,ugm-3
03-01-2014,20:00,0.79858,R,ugm-3,8.76642,R,ugm-3,9.99090,R,ugm-3,63.36348,R,ugm-3
03-01-2014,21:00,1.11883,R,ugm-3,7.08868,R,ugm-3,8.80419,R,ugm-3,70.39832,R,ugm-3
03-01-2014,22:00,0.91864,R,ugm-3,11.51708,R,ugm-3,12.92563,R,ugm-3,68.25294,R,ugm-3
03-01-2014,23:00,1.11883,R,ugm-3,13.77000,R,ugm-3,15.48551,R,ugm-3,63.41337,R,ugm-3
03-01-2014,24:00,0.87872,R,ugm-3,10.95384,R,ugm-3,12.30120,R,ugm-3,68.90154,R,ugm-3
04-01-2014,01:00,1.17870,R,ugm-3,12.93551,R,ugm-3,14.74283,R,ugm-3,71.24649,R,ugm-3
04-01-2014,02:00,1.01780,R,ugm-3,2.96310,R,ugm-3,4.52370,R,ugm-3,78.43101,R,ugm-3
04-01-2014,03:00,0.92394,R,ugm-3,3.73511,R,ugm-3,5.15180,R,ugm-3,72.74327,R,ugm-3
04-01-2014,04:00,1.20583,R,ugm-3,3.61749,R,ugm-3,5.46640,R,ugm-3,64.71057,R,ugm-3
04-01-2014,05:00,1.00439,R,ugm-3,4.36528,R,ugm-3,5.90532,R,ugm-3,62.81466,R,ugm-3
04-01-2014,06:00,1.08484,R,ugm-3,4.99593,R,ugm-3,6.65933,R,ugm-3,60.17036,R,ugm-3
04-01-2014,07:00,1.36642,R,ugm-3,8.39731,R,ugm-3,10.49245,R,ugm-3,54.73207,R,ugm-3
04-01-2014,08:00,0.96416,R,ugm-3,5.74658,R,ugm-3,7.22495,R,ugm-3,61.86670,R,ugm-3
04-01-2014,09:00,0.76366,R,ugm-3,6.87066,R,ugm-3,8.04158,R,ugm-3,62.21595,R,ugm-3
04-01-2014,10:00,1.12507,R,ugm-3,7.44775,R,ugm-3,9.17283,R,ugm-3,61.16821,R,ugm-3
04-01-2014,11:00,1.44687,R,ugm-3,16.62919,R,ugm-3,18.84769,R,ugm-3,43.90540,R,ugm-3
04-01-2014,12:00,2.37143,R,ugm-3,26.33178,R,ugm-3,29.96792,R,ugm-3,37.02024,R,ugm-3
04-01-2014,13:00,2.17061,R,ugm-3,5.90723,R,ugm-3,9.23546,R,ugm-3,40.71228,R,ugm-3
04-01-2014,14:00,3.17531,R,ugm-3,7.82165,R,ugm-3,12.69039,R,ugm-3,41.26110,R,ugm-3
04-01-2014,15:00,6.14981,R,ugm-3,37.62700,R,ugm-3,47.05658,R,ugm-3,26.94195,R,ugm-3
04-01-2014,16:00,2.29129,R,ugm-3,31.98322,R,ugm-3,35.49648,R,ugm-3,27.44088,R,ugm-3
04-01-2014,17:00,4.86354,R,ugm-3,52.41541,R,ugm-3,59.87273,R,ugm-3,4.78968,R,ugm-3
04-01-2014,18:00,3.21554,R,ugm-3,55.57056,R,ugm-3,60.50098,R,ugm-3,4.14108,R,ugm-3
04-01-2014,19:00,9.44549,R,ugm-3,66.75103,R,ugm-3,81.23392,R,ugm-3,1.99570,R,ugm-3
04-01-2014,20:00,3.25577,R,ugm-3,50.35708,R,ugm-3,55.34918,R,ugm-3,22.45163,R,ugm-3
04-01-2014,21:00,1.68822,R,ugm-3,36.17494,R,ugm-3,38.76351,R,ugm-3,34.62540,R,ugm-3
04-01-2014,22:00,1.52732,R,ugm-3,30.20220,R,ugm-3,32.54406,R,ugm-3,36.57120,R,ugm-3
04-01-2014,23:00,1.08484,R,ugm-3,14.41977,R,ugm-3,16.08317,R,ugm-3,46.69938,R,ugm-3
04-01-2014,24:00,1.16529,R,ugm-3,14.10803,R,ugm-3,15.89479,R,ugm-3,46.35013,R,ugm-3
05-01-2014,01:00,1.13255,R,ugm-3,10.06230,R,ugm-3,11.79885,R,ugm-3,50.35816,R,ugm-3
05-01-2014,02:00,1.40238,R,ugm-3,7.70993,R,ugm-3,9.86021,R,ugm-3,51.55558,R,ugm-3
05-01-2014,03:00,1.09201,R,ugm-3,19.12118,R,ugm-3,20.79557,R,ugm-3,45.35228,R,ugm-3
05-01-2014,04:00,1.25385,R,ugm-3,13.69015,R,ugm-3,15.61269,R,ugm-3,54.13336,R,ugm-3
05-01-2014,05:00,1.01094,R,ugm-3,9.82738,R,ugm-3,11.37746,R,ugm-3,54.88175,R,ugm-3
05-01-2014,06:00,0.93017,R,ugm-3,8.93998,R,ugm-3,10.36623,R,ugm-3,47.64734,R,ugm-3
05-01-2014,07:00,1.05147,R,ugm-3,10.20749,R,ugm-3,11.81973,R,ugm-3,47.94669,R,ugm-3
05-01-2014,08:00,1.09201,R,ugm-3,9.63996,R,ugm-3,11.31435,R,ugm-3,47.74712,R,ugm-3
05-01-2014,09:00,1.17309,R,ugm-3,8.50393,R,ugm-3,10.30264,R,ugm-3,51.18971,R,ugm-3
05-01-2014,10:00,1.41569,R,ugm-3,7.94309,R,ugm-3,10.11378,R,ugm-3,52.73637,R,ugm-3
05-01-2014,11:00,1.77959,R,ugm-3,10.10230,R,ugm-3,12.83096,R,ugm-3,53.73422,R,ugm-3
05-01-2014,12:00,1.45591,R,ugm-3,11.98946,R,ugm-3,14.22183,R,ugm-3,52.08777,R,ugm-3
05-01-2014,13:00,1.45591,R,ugm-3,10.21992,R,ugm-3,12.45229,R,ugm-3,54.93164,R,ugm-3
05-01-2014,14:00,1.41537,R,ugm-3,8.63828,R,ugm-3,10.80849,R,ugm-3,55.18111,R,ugm-3
05-01-2014,15:00,1.05147,R,ugm-3,9.38607,R,ugm-3,10.99831,R,ugm-3,56.82756,R,ugm-3
05-01-2014,16:00,1.05147,R,ugm-3,8.43795,R,ugm-3,10.05019,R,ugm-3,62.06627,R,ugm-3
05-01-2014,17:00,1.13224,R,ugm-3,10.21036,R,ugm-3,11.94643,R,ugm-3,60.27014,R,ugm-3
05-01-2014,18:00,0.93017,R,ugm-3,8.30790,R,ugm-3,9.73415,R,ugm-3,62.36563,R,ugm-3
05-01-2014,19:00,1.05147,R,ugm-3,7.74276,R,ugm-3,9.35499,R,ugm-3,63.61294,R,ugm-3
05-01-2014,20:00,0.92986,R,ugm-3,7.54959,R,ugm-3,8.97536,R,ugm-3,61.41767,R,ugm-3
05-01-2014,21:00,1.05147,R,ugm-3,5.72029,R,ugm-3,7.33253,R,ugm-3,60.22025,R,ugm-3
05-01-2014,22:00,0.64673,R,ugm-3,3.62228,R,ugm-3,4.61391,R,ugm-3,58.87315,R,ugm-3
05-01-2014,23:00,0.56596,R,ugm-3,8.17116,R,ugm-3,9.03895,R,ugm-3,54.78197,R,ugm-3
05-01-2014,24:00,1.01094,R,ugm-3,10.71239,R,ugm-3,12.26247,R,ugm-3,66.95574,R,ugm-3
06-01-2014,01:00,0.97664,R,ugm-3,2.31795,R,ugm-3,3.81544,R,ugm-3,74.04047,R,ugm-3
06-01-2014,02:00,1.03110,R,ugm-3,1.21699,R,ugm-3,2.79799,R,ugm-3,74.97180,R,ugm-3
06-01-2014,03:00,0.93610,R,ugm-3,1.55343,R,ugm-3,2.98876,R,ugm-3,78.23144,R,ugm-3
06-01-2014,04:00,0.73248,R,ugm-3,1.48410,R,ugm-3,2.60722,R,ugm-3,76.13596,R,ugm-3
06-01-2014,05:00,0.77333,R,ugm-3,2.69328,R,ugm-3,3.87903,R,ugm-3,77.73252,R,ugm-3
06-01-2014,06:00,0.69163,R,ugm-3,4.34472,R,ugm-3,5.40520,R,ugm-3,73.89079,R,ugm-3
06-01-2014,07:00,0.89494,R,ugm-3,10.64641,R,ugm-3,12.01863,R,ugm-3,67.05552,R,ugm-3
06-01-2014,08:00,1.01749,R,ugm-3,14.01958,R,ugm-3,15.57970,R,ugm-3,65.65853,R,ugm-3
06-01-2014,09:00,1.13910,R,ugm-3,16.69469,R,ugm-3,18.44128,R,ugm-3,61.51745,R,ugm-3
06-01-2014,10:00,1.38357,R,ugm-3,9.32487,R,ugm-3,11.44631,R,ugm-3,59.62154,R,ugm-3
06-01-2014,11:00,1.30218,R,ugm-3,-0.27970,R,ugm-3,1.71695,R,ugm-3,68.45251,R,ugm-3
06-01-2014,12:00,1.30249,R,ugm-3,-0.34377,R,ugm-3,1.65336,R,ugm-3,67.00563,R,ugm-3
06-01-2014,13:00,0.89525,R,ugm-3,-0.60961,R,ugm-3,0.76309,R,ugm-3,68.65208,R,ugm-3
06-01-2014,14:00,1.30218,R,ugm-3,-0.59766,R,ugm-3,1.39899,R,ugm-3,65.30928,R,ugm-3
06-01-2014,15:00,1.38388,R,ugm-3,-0.53215,R,ugm-3,1.58977,R,ugm-3,60.51960,R,ugm-3
06-01-2014,16:00,0.93548,R,ugm-3,-0.48052,R,ugm-3,0.95386,R,ugm-3,63.01423,R,ugm-3
06-01-2014,17:00,0.89556,R,ugm-3,-0.54650,R,ugm-3,0.82668,R,ugm-3,62.56520,R,ugm-3
06-01-2014,18:00,1.13972,R,ugm-3,0.09658,R,ugm-3,1.84413,R,ugm-3,61.96649,R,ugm-3
06-01-2014,19:00,0.69194,R,ugm-3,-0.36146,R,ugm-3,0.69950,R,ugm-3,64.86025,R,ugm-3
06-01-2014,20:00,0.89494,R,ugm-3,0.85345,R,ugm-3,2.22567,R,ugm-3,68.40262,R,ugm-3
06-01-2014,21:00,1.05802,R,ugm-3,4.92756,R,ugm-3,6.54983,R,ugm-3,68.50240,R,ugm-3
06-01-2014,22:00,1.01749,R,ugm-3,5.05330,R,ugm-3,6.61343,R,ugm-3,66.65638,R,ugm-3
06-01-2014,23:00,0.89525,R,ugm-3,5.30432,R,ugm-3,6.67702,R,ugm-3,68.35273,R,ugm-3
06-01-2014,24:00,0.77301,R,ugm-3,4.72866,R,ugm-3,5.91393,R,ugm-3,67.15531,R,ugm-3
07-01-2014,01:00,0.81865,R,ugm-3,4.45995,R,ugm-3,5.71519,R,ugm-3,67.45466,R,ugm-3
07-01-2014,02:00,1.09139,R,ugm-3,3.35963,R,ugm-3,5.03306,R,ugm-3,68.58556,R,ugm-3
07-01-2014,03:00,0.90055,R,ugm-3,2.01004,R,ugm-3,3.39086,R,ugm-3,68.30283,R,ugm-3
07-01-2014,04:00,1.02341,R,ugm-3,2.07698,R,ugm-3,3.64618,R,ugm-3,71.09681,R,ugm-3
07-01-2014,05:00,0.90055,R,ugm-3,2.32943,R,ugm-3,3.71025,R,ugm-3,70.99703,R,ugm-3
07-01-2014,06:00,0.90055,R,ugm-3,3.67296,R,ugm-3,5.05378,R,ugm-3,69.50025,R,ugm-3
07-01-2014,07:00,0.69599,R,ugm-3,-0.10758,R,ugm-3,0.95960,R,ugm-3,64.61079,R,ugm-3
07-01-2014,08:00,0.94171,R,ugm-3,0.15539,R,ugm-3,1.59933,R,ugm-3,59.47186,R,ugm-3
07-01-2014,09:00,1.02341,R,ugm-3,5.53143,R,ugm-3,7.10063,R,ugm-3,58.07487,R,ugm-3
07-01-2014,10:00,1.30967,R,ugm-3,0.93473,R,ugm-3,2.94286,R,ugm-3,57.02713,R,ugm-3
07-01-2014,11:00,1.88374,R,ugm-3,1.90963,R,ugm-3,4.79798,R,ugm-3,61.21810,R,ugm-3
07-01-2014,12:00,1.76056,R,ugm-3,0.11571,R,ugm-3,2.81520,R,ugm-3,59.87100,R,ugm-3
07-01-2014,13:00,1.80141,R,ugm-3,0.11666,R,ugm-3,2.87879,R,ugm-3,55.97939,R,ugm-3
07-01-2014,14:00,1.76025,R,ugm-3,7.02509,R,ugm-3,9.72411,R,ugm-3,60.07057,R,ugm-3
07-01-2014,15:00,1.63802,R,ugm-3,8.49198,R,ugm-3,11.00357,R,ugm-3,65.00993,R,ugm-3
07-01-2014,16:00,1.30998,R,ugm-3,11.10589,R,ugm-3,13.11449,R,ugm-3,60.17036,R,ugm-3
07-01-2014,17:00,1.14596,R,ugm-3,21.01742,R,ugm-3,22.77453,R,ugm-3,47.94669,R,ugm-3
07-01-2014,18:00,0.98256,R,ugm-3,21.97223,R,ugm-3,23.47881,R,ugm-3,46.40003,R,ugm-3
07-01-2014,19:00,1.22828,R,ugm-3,11.87041,R,ugm-3,13.75374,R,ugm-3,57.17681,R,ugm-3
07-01-2014,20:00,1.14627,R,ugm-3,13.27610,R,ugm-3,15.03368,R,ugm-3,51.63874,R,ugm-3
07-01-2014,21:00,0.77738,R,ugm-3,11.09107,R,ugm-3,12.28303,R,ugm-3,53.23530,R,ugm-3
07-01-2014,22:00,1.06426,R,ugm-3,9.88332,R,ugm-3,11.51516,R,ugm-3,54.08347,R,ugm-3
07-01-2014,23:00,1.02341,R,ugm-3,7.83456,R,ugm-3,9.40376,R,ugm-3,55.18111,R,ugm-3
07-01-2014,24:00,1.02341,R,ugm-3,6.49150,R,ugm-3,8.06071,R,ugm-3,57.97509,R,ugm-3
08-01-2014,01:00,0.71387,R,ugm-3,7.57223,R,ugm-3,8.66681,R,ugm-3,57.27659,R,ugm-3
08-01-2014,02:00,1.31840,R,ugm-3,5.87329,R,ugm-3,7.89480,R,ugm-3,52.81953,R,ugm-3
08-01-2014,03:00,0.98880,R,ugm-3,6.14247,R,ugm-3,7.65861,R,ugm-3,53.23530,R,ugm-3
08-01-2014,04:00,0.94732,R,ugm-3,4.79033,R,ugm-3,6.24288,R,ugm-3,57.57595,R,ugm-3
08-01-2014,05:00,0.98849,R,ugm-3,8.58856,R,ugm-3,10.10422,R,ugm-3,59.17251,R,ugm-3
08-01-2014,06:00,1.11259,R,ugm-3,20.81900,R,ugm-3,22.52495,R,ugm-3,54.98154,R,ugm-3
08-01-2014,07:00,1.07112,R,ugm-3,13.15991,R,ugm-3,14.80227,R,ugm-3,58.32433,R,ugm-3
08-01-2014,08:00,1.11228,R,ugm-3,23.45729,R,ugm-3,25.16276,R,ugm-3,49.89250,R,ugm-3
08-01-2014,09:00,1.35956,R,ugm-3,32.34563,R,ugm-3,34.43026,R,ugm-3,39.66454,R,ugm-3
08-01-2014,10:00,12.06950,R,ugm-3,56.08215,R,ugm-3,74.58846,R,ugm-3,17.56216,R,ugm-3
08-01-2014,11:00,15.69415,R,ugm-3,56.05872,R,ugm-3,80.12275,R,ugm-3,18.36044,R,ugm-3
08-01-2014,12:00,5.64341,R,ugm-3,35.62318,R,ugm-3,44.27629,R,ugm-3,38.91615,R,ugm-3
08-01-2014,13:00,6.38462,R,ugm-3,40.85817,R,ugm-3,50.64778,R,ugm-3,28.08948,R,ugm-3
08-01-2014,14:00,3.74876,R,ugm-3,34.02385,R,ugm-3,39.77187,R,ugm-3,29.78582,R,ugm-3
08-01-2014,15:00,3.25389,R,ugm-3,35.29710,R,ugm-3,40.28633,R,ugm-3,27.88991,R,ugm-3
08-01-2014,16:00,6.05533,R,ugm-3,48.44219,R,ugm-3,57.72690,R,ugm-3,14.41893,R,ugm-3
08-01-2014,17:00,3.04840,R,ugm-3,50.09268,R,ugm-3,54.76683,R,ugm-3,9.57936,R,ugm-3
08-01-2014,18:00,1.48304,R,ugm-3,43.28944,R,ugm-3,45.56340,R,ugm-3,23.44948,R,ugm-3
08-01-2014,19:00,0.94732,R,ugm-3,23.19576,R,ugm-3,24.64830,R,ugm-3,38.01809,R,ugm-3
08-01-2014,20:00,12.23414,R,ugm-3,51.83927,R,ugm-3,70.59803,R,ugm-3,10.97635,R,ugm-3
08-01-2014,21:00,10.42150,R,ugm-3,69.67763,R,ugm-3,85.65705,R,ugm-3,4.83957,R,ugm-3
08-01-2014,22:00,1.44188,R,ugm-3,32.92751,R,ugm-3,35.13836,R,ugm-3,35.02454,R,ugm-3
08-01-2014,23:00,1.44188,R,ugm-3,20.82856,R,ugm-3,23.03941,R,ugm-3,41.51056,R,ugm-3
08-01-2014,24:00,1.03027,R,ugm-3,22.93948,R,ugm-3,24.51921,R,ugm-3,35.22411,R,ugm-3
09-01-2014,01:00,1.38035,R,ugm-3,20.41275,R,ugm-3,22.52925,R,ugm-3,29.73593,R,ugm-3
09-01-2014,02:00,1.49052,R,ugm-3,25.50829,R,ugm-3,27.79373,R,ugm-3,22.48489,R,ugm-3
09-01-2014,03:00,1.28347,R,ugm-3,23.34445,R,ugm-3,25.31242,R,ugm-3,20.65550,R,ugm-3
09-01-2014,04:00,1.78052,R,ugm-3,25.23639,R,ugm-3,27.96649,R,ugm-3,15.56646,R,ugm-3
09-01-2014,05:00,2.69136,R,ugm-3,35.03987,R,ugm-3,39.16657,R,ugm-3,10.12818,R,ugm-3
09-01-2014,06:00,1.15968,R,ugm-3,13.69398,R,ugm-3,15.47213,R,ugm-3,43.95529,R,ugm-3
09-01-2014,07:00,0.99379,R,ugm-3,6.24479,R,ugm-3,7.76858,R,ugm-3,59.82111,R,ugm-3
09-01-2014,08:00,0.74526,R,ugm-3,14.13577,R,ugm-3,15.27848,R,ugm-3,53.33508,R,ugm-3
09-01-2014,09:00,1.36642,R,ugm-3,24.12380,R,ugm-3,26.21894,R,ugm-3,41.61035,R,ugm-3
09-01-2014,10:00,4.01662,R,ugm-3,33.00784,R,ugm-3,39.16657,R,ugm-3,28.38883,R,ugm-3
09-01-2014,11:00,2.81578,R,ugm-3,17.11066,R,ugm-3,21.42813,R,ugm-3,48.64519,R,ugm-3
09-01-2014,12:00,2.11199,R,ugm-3,3.36504,R,ugm-3,6.60338,R,ugm-3,60.71917,R,ugm-3
09-01-2014,13:00,1.49084,R,ugm-3,0.49773,R,ugm-3,2.78364,R,ugm-3,63.36348,R,ugm-3
09-01-2014,14:00,1.44936,R,ugm-3,1.14415,R,ugm-3,3.36648,R,ugm-3,63.31358,R,ugm-3
09-01-2014,15:00,1.15937,R,ugm-3,1.45924,R,ugm-3,3.23691,R,ugm-3,65.00993,R,ugm-3
09-01-2014,16:00,1.44936,R,ugm-3,1.92063,R,ugm-3,4.14295,R,ugm-3,53.08562,R,ugm-3
09-01-2014,17:00,0.91115,R,ugm-3,2.61678,R,ugm-3,4.01386,R,ugm-3,54.38283,R,ugm-3
09-01-2014,18:00,0.82821,R,ugm-3,8.57039,R,ugm-3,9.84029,R,ugm-3,46.35013,R,ugm-3
09-01-2014,19:00,1.11820,R,ugm-3,8.06071,R,ugm-3,9.77527,R,ugm-3,45.35228,R,ugm-3
09-01-2014,20:00,1.61525,R,ugm-3,20.37530,R,ugm-3,22.85198,R,ugm-3,22.25206,R,ugm-3
09-01-2014,21:00,1.82199,R,ugm-3,20.18835,R,ugm-3,22.98203,R,ugm-3,14.61850,R,ugm-3
09-01-2014,22:00,1.73905,R,ugm-3,23.68201,R,ugm-3,26.34851,R,ugm-3,25.24561,R,ugm-3
09-01-2014,23:00,2.36052,R,ugm-3,27.13120,R,ugm-3,30.75061,R,ugm-3,23.64905,R,ugm-3
09-01-2014,24:00,1.82199,R,ugm-3,32.55362,R,ugm-3,35.34730,R,ugm-3,25.39528,R,ugm-3
10-01-2014,01:00,1.11093,R,ugm-3,8.45516,R,ugm-3,10.15856,R,ugm-3,21.02137,R,ugm-3
10-01-2014,02:00,1.27765,R,ugm-3,1.68746,R,ugm-3,3.64650,R,ugm-3,32.66296,R,ugm-3
10-01-2014,03:00,0.70816,R,ugm-3,2.49581,R,ugm-3,3.58163,R,ugm-3,31.33249,R,ugm-3
10-01-2014,04:00,1.08328,R,ugm-3,3.02797,R,ugm-3,4.68897,R,ugm-3,27.69034,R,ugm-3
10-01-2014,05:00,1.12475,R,ugm-3,1.79153,R,ugm-3,3.51613,R,ugm-3,28.18926,R,ugm-3
10-01-2014,06:00,2.24982,R,ugm-3,3.32297,R,ugm-3,6.77264,R,ugm-3,14.76818,R,ugm-3
10-01-2014,07:00,1.37484,R,ugm-3,4.98971,R,ugm-3,7.09777,R,ugm-3,18.75958,R,ugm-3
10-01-2014,08:00,3.49930,R,ugm-3,12.73773,R,ugm-3,18.10325,R,ugm-3,13.52087,R,ugm-3
10-01-2014,09:00,3.49961,R,ugm-3,4.46664,R,ugm-3,9.83264,R,ugm-3,17.26281,R,ugm-3
10-01-2014,10:00,4.29071,R,ugm-3,7.48744,R,ugm-3,14.06644,R,ugm-3,25.99399,R,ugm-3
10-01-2014,11:00,7.20690,R,ugm-3,3.47119,R,ugm-3,14.52161,R,ugm-3,29.53636,R,ugm-3
10-01-2014,12:00,4.20746,R,ugm-3,2.14487,R,ugm-3,8.59621,R,ugm-3,41.66024,R,ugm-3
10-01-2014,13:00,3.58256,R,ugm-3,2.19125,R,ugm-3,7.68443,R,ugm-3,43.10712,R,ugm-3
10-01-2014,14:00,3.74938,R,ugm-3,0.82763,R,ugm-3,6.57661,R,ugm-3,44.55400,R,ugm-3
10-01-2014,15:00,1.91648,R,ugm-3,-0.00861,R,ugm-3,2.92995,R,ugm-3,46.64949,R,ugm-3
10-01-2014,16:00,1.33305,R,ugm-3,0.23524,R,ugm-3,2.27922,R,ugm-3,42.90755,R,ugm-3
10-01-2014,17:00,0.79141,R,ugm-3,0.15348,R,ugm-3,1.36696,R,ugm-3,34.77507,R,ugm-3
10-01-2014,18:00,1.12475,R,ugm-3,1.40138,R,ugm-3,3.12598,R,ugm-3,32.82927,R,ugm-3
10-01-2014,19:00,0.87498,R,ugm-3,0.87210,R,ugm-3,2.21372,R,ugm-3,35.72303,R,ugm-3
10-01-2014,20:00,1.08328,R,ugm-3,0.61822,R,ugm-3,2.27922,R,ugm-3,37.16991,R,ugm-3
10-01-2014,21:00,0.95824,R,ugm-3,0.15874,R,ugm-3,1.62802,R,ugm-3,39.46497,R,ugm-3
10-01-2014,22:00,0.95824,R,ugm-3,-0.23189,R,ugm-3,1.23739,R,ugm-3,42.30884,R,ugm-3
10-01-2014,23:00,1.12475,R,ugm-3,0.16448,R,ugm-3,1.88907,R,ugm-3,37.36948,R,ugm-3
10-01-2014,24:00,1.12475,R,ugm-3,-0.74779,R,ugm-3,0.97681,R,ugm-3,54.13336,R,ugm-3
11-01-2014,01:00,0.89390,R,ugm-3,-0.67192,R,ugm-3,0.69870,R,ugm-3,56.21222,R,ugm-3
11-01-2014,02:00,0.89390,R,ugm-3,-0.49725,R,ugm-3,0.87338,R,ugm-3,52.68648,R,ugm-3
11-01-2014,03:00,0.83850,R,ugm-3,-0.10662,R,ugm-3,1.17906,R,ugm-3,54.63229,R,ugm-3
11-01-2014,04:00,0.83819,R,ugm-3,-0.76117,R,ugm-3,0.52403,R,ugm-3,58.32433,R,ugm-3
11-01-2014,05:00,0.96385,R,ugm-3,-0.56084,R,ugm-3,0.91704,R,ugm-3,53.93379,R,ugm-3
11-01-2014,06:00,0.79640,R,ugm-3,0.94047,R,ugm-3,2.16160,R,ugm-3,49.89250,R,ugm-3
11-01-2014,07:00,1.00595,R,ugm-3,1.60172,R,ugm-3,3.14415,R,ugm-3,34.82497,R,ugm-3
11-01-2014,08:00,1.25728,R,ugm-3,1.34736,R,ugm-3,3.27516,R,ugm-3,37.91830,R,ugm-3
11-01-2014,09:00,0.87997,R,ugm-3,-0.17021,R,ugm-3,1.17906,R,ugm-3,67.65423,R,ugm-3
11-01-2014,10:00,1.00595,R,ugm-3,1.33971,R,ugm-3,2.88214,R,ugm-3,62.06627,R,ugm-3
11-01-2014,11:00,1.71847,R,ugm-3,1.88477,R,ugm-3,4.51972,R,ugm-3,57.97509,R,ugm-3
11-01-2014,12:00,2.89218,R,ugm-3,1.06765,R,ugm-3,5.50226,R,ugm-3,59.52175,R,ugm-3
11-01-2014,13:00,1.63459,R,ugm-3,0.44131,R,ugm-3,2.94764,R,ugm-3,66.55660,R,ugm-3
11-01-2014,14:00,1.42504,R,ugm-3,5.28233,R,ugm-3,7.46736,R,ugm-3,66.80606,R,ugm-3
11-01-2014,15:00,1.46683,R,ugm-3,7.05234,R,ugm-3,9.30144,R,ugm-3,62.76477,R,ugm-3
11-01-2014,16:00,1.63490,R,ugm-3,13.54146,R,ugm-3,16.04827,R,ugm-3,54.38283,R,ugm-3
11-01-2014,17:00,1.42535,R,ugm-3,22.83668,R,ugm-3,25.02219,R,ugm-3,41.06153,R,ugm-3
11-01-2014,18:00,2.80798,R,ugm-3,62.63868,R,ugm-3,66.94419,R,ugm-3,10.92646,R,ugm-3
11-01-2014,19:00,7.46010,R,ugm-3,73.38788,R,ugm-3,84.82655,R,ugm-3,2.29506,R,ugm-3
11-01-2014,20:00,20.57733,R,ugm-3,75.54614,R,ugm-3,107.09761,R,ugm-3,1.04774,R,ugm-3
11-01-2014,21:00,15.08703,R,ugm-3,68.83327,R,ugm-3,91.96639,R,ugm-3,1.09764,R,ugm-3
11-01-2014,22:00,13.82975,R,ugm-3,62.31116,R,ugm-3,83.51648,R,ugm-3,0.94796,R,ugm-3
11-01-2014,23:00,24.55871,R,ugm-3,55.22726,R,ugm-3,92.88343,R,ugm-3,1.04774,R,ugm-3
11-01-2014,24:00,24.34948,R,ugm-3,51.15938,R,ugm-3,88.49472,R,ugm-3,0.74839,R,ugm-3
12-01-2014,01:00,20.01168,R,ugm-3,43.72294,R,ugm-3,74.40709,R,ugm-3,0.86480,R,ugm-3
12-01-2014,02:00,20.12352,R,ugm-3,51.01785,R,ugm-3,81.87349,R,ugm-3,0.86480,R,ugm-3
12-01-2014,03:00,15.05023,R,ugm-3,51.76946,R,ugm-3,74.84617,R,ugm-3,0.64860,R,ugm-3
12-01-2014,04:00,12.73213,R,ugm-3,45.17755,R,ugm-3,64.69988,R,ugm-3,6.13678,R,ugm-3
12-01-2014,05:00,1.05397,R,ugm-3,26.05638,R,ugm-3,27.67244,R,ugm-3,21.50367,R,ugm-3
12-01-2014,06:00,1.01156,R,ugm-3,17.42383,R,ugm-3,18.97487,R,ugm-3,32.18066,R,ugm-3
12-01-2014,07:00,0.80108,R,ugm-3,17.41762,R,ugm-3,18.64592,R,ugm-3,36.27185,R,ugm-3
12-01-2014,08:00,1.43377,R,ugm-3,22.90410,R,ugm-3,25.10252,R,ugm-3,29.73593,R,ugm-3
12-01-2014,09:00,1.81295,R,ugm-3,30.03199,R,ugm-3,32.81181,R,ugm-3,22.20216,R,ugm-3
12-01-2014,10:00,4.13168,R,ugm-3,33.06426,R,ugm-3,39.39941,R,ugm-3,20.85507,R,ugm-3
12-01-2014,11:00,4.80616,R,ugm-3,25.90290,R,ugm-3,33.27224,R,ugm-3,29.58625,R,ugm-3
12-01-2014,12:00,4.04718,R,ugm-3,24.49721,R,ugm-3,30.70280,R,ugm-3,35.12432,R,ugm-3
12-01-2014,13:00,3.33060,R,ugm-3,25.39848,R,ugm-3,30.50533,R,ugm-3,40.26325,R,ugm-3
12-01-2014,14:00,2.10794,R,ugm-3,26.74583,R,ugm-3,29.97796,R,ugm-3,36.97034,R,ugm-3
12-01-2014,15:00,1.68635,R,ugm-3,22.38486,R,ugm-3,24.97056,R,ugm-3,37.12002,R,ugm-3
12-01-2014,16:00,1.47587,R,ugm-3,18.62297,R,ugm-3,20.88593,R,ugm-3,38.36733,R,ugm-3
12-01-2014,17:00,1.26507,R,ugm-3,18.15488,R,ugm-3,20.09464,R,ugm-3,36.87056,R,ugm-3
12-01-2014,18:00,1.47556,R,ugm-3,17.76665,R,ugm-3,20.02913,R,ugm-3,35.37378,R,ugm-3
12-01-2014,19:00,1.09638,R,ugm-3,16.56942,R,ugm-3,18.25051,R,ugm-3,34.12647,R,ugm-3
12-01-2014,20:00,1.34927,R,ugm-3,16.04970,R,ugm-3,18.11855,R,ugm-3,33.77722,R,ugm-3
12-01-2014,21:00,1.13816,R,ugm-3,13.67198,R,ugm-3,15.41714,R,ugm-3,35.77292,R,ugm-3